TimeEST,TemperatureF,Dew PointF,Humidity,Sea Level PressureIn,VisibilityMPH,Wind Direction,Wind SpeedMPH,Gust SpeedMPH,PrecipitationIn,Events,Conditions,WindDirDegrees,DateUTC
12:14 AM,9.7,7.9,92,30.25,7.0,South,5.8,-,N/A,,Clear,180,2013-02-10 05:14:00
12:33 AM,12.6,10.6,92,30.24,7.0,South,4.6,-,N/A,,Clear,190,2013-02-10 05:33:00
12:54 AM,17.6,16.3,95,30.24,10.0,South,5.8,-,N/A,,Clear,190,2013-02-10 05:54:00
1:14 AM,18.1,16.2,92,30.23,10.0,South,6.9,-,N/A,,Clear,190,2013-02-10 06:14:00
1:33 AM,19.8,18.1,93,30.23,10.0,South,6.9,-,N/A,,Clear,180,2013-02-10 06:33:00
1:54 AM,20.1,18.0,91,30.22,10.0,South,6.9,-,N/A,,Clear,180,2013-02-10 06:54:00
2:14 AM,19.0,16.7,91,30.22,10.0,South,4.6,-,N/A,,Clear,180,2013-02-10 07:14:00
2:33 AM,18.9,16.7,91,30.21,10.0,South,4.6,-,N/A,,Scattered Clouds,170,2013-02-10 07:33:00
2:54 AM,18.9,16.9,92,30.21,10.0,South,3.5,-,N/A,,Scattered Clouds,170,2013-02-10 07:54:00
3:13 AM,18.5,16.9,93,30.20,10.0,Calm,Calm,-,N/A,,Clear,0,2013-02-10 08:13:00
3:33 AM,13.5,11.8,93,30.20,4.0,South,4.6,-,N/A,,Clear,180,2013-02-10 08:33:00
3:54 AM,11.7,10.2,94,30.19,1.2,South,3.5,-,N/A,,Mist,180,2013-02-10 08:54:00
4:13 AM,10.8,9.1,93,30.19,1.5,Calm,Calm,-,N/A,,Mist,0,2013-02-10 09:13:00
4:33 AM,10.0,8.2,92,30.19,1.0,South,4.6,-,N/A,,Mist,190,2013-02-10 09:33:00
4:54 AM,11.8,10.0,92,30.19,4.0,SSW,4.6,-,N/A,,Clear,200,2013-02-10 09:54:00
5:13 AM,12.6,10.8,92,30.19,4.0,SSW,3.5,-,N/A,,Clear,200,2013-02-10 10:13:00
5:33 AM,12.6,10.6,92,30.20,4.0,SSW,4.6,-,N/A,,Clear,200,2013-02-10 10:33:00
5:54 AM,12.9,11.1,93,30.20,2.5,Calm,Calm,-,N/A,,Clear,0,2013-02-10 10:54:00
6:13 AM,11.1,8.8,90,30.19,0.5,Calm,Calm,-,N/A,Fog,Light Freezing Fog,0,2013-02-10 11:13:00
6:33 AM,5.4,2.7,89,30.19,0.2,Calm,Calm,-,N/A,Fog,Light Freezing Fog,0,2013-02-10 11:33:00
6:54 AM,3.7,0.5,86,30.19,7.0,Calm,Calm,-,N/A,,Clear,0,2013-02-10 11:54:00
7:13 AM,3.6,0.5,87,30.19,10.0,Calm,Calm,-,N/A,,Clear,0,2013-02-10 12:13:00
7:33 AM,4.1,0.9,86,30.19,10.0,Calm,Calm,-,N/A,,Scattered Clouds,0,2013-02-10 12:33:00
7:54 AM,3.7,0.5,86,30.19,10.0,Calm,Calm,-,N/A,,Overcast,0,2013-02-10 12:54:00
8:13 AM,3.0,-0.4,86,30.19,10.0,Calm,Calm,-,N/A,,Overcast,0,2013-02-10 13:13:00
8:33 AM,3.4,0.1,86,30.18,0.2,Calm,Calm,-,N/A,Fog,Light Freezing Fog,0,2013-02-10 13:33:00
8:54 AM,4.8,1.9,88,30.18,0.2,Calm,Calm,-,N/A,Fog,Light Freezing Fog,0,2013-02-10 13:54:00
9:13 AM,5.5,2.5,87,30.16,0.2,Calm,Calm,-,N/A,Fog,Light Freezing Fog,0,2013-02-10 14:13:00
9:34 AM,8.6,6.1,89,30.15,0.2,Calm,Calm,-,N/A,Fog,Light Freezing Fog,0,2013-02-10 14:34:00
9:54 AM,11.1,8.8,90,30.14,0.2,Calm,Calm,-,N/A,Fog,Light Freezing Fog,0,2013-02-10 14:54:00
10:13 AM,16.2,14.5,93,30.13,5.0,Calm,Calm,-,N/A,,Clear,0,2013-02-10 15:13:00
10:34 AM,25.2,24.3,96,30.11,7.0,SE,4.6,-,N/A,,Scattered Clouds,130,2013-02-10 15:34:00
10:54 AM,25.3,24.3,96,30.09,10.0,SE,4.6,-,N/A,,Clear,140,2013-02-10 15:54:00
11:13 AM,26.4,25.0,94,30.07,7.0,ESE,6.9,-,N/A,,Clear,110,2013-02-10 16:13:00
11:34 AM,27.0,23.4,86,30.08,10.0,ESE,8.1,-,N/A,,Clear,120,2013-02-10 16:34:00
11:54 AM,29.3,22.5,76,30.10,10.0,SSE,8.1,-,N/A,,Mostly Cloudy,150,2013-02-10 16:54:00
12:13 PM,30.6,21.0,68,30.08,10.0,SSE,8.1,-,N/A,,Scattered Clouds,150,2013-02-10 17:13:00
12:34 PM,30.7,21.6,69,30.07,10.0,SSE,10.4,-,N/A,,Mostly Cloudy,150,2013-02-10 17:34:00
12:54 PM,31.8,21.4,65,30.06,10.0,South,11.5,-,N/A,,Overcast,180,2013-02-10 17:54:00
1:13 PM,31.8,21.6,66,30.03,10.0,South,8.1,-,N/A,,Mostly Cloudy,170,2013-02-10 18:13:00
1:34 PM,31.6,21.7,67,30.02,10.0,South,11.5,-,N/A,,Scattered Clouds,170,2013-02-10 18:34:00
1:53 PM,32.0,21.2,64,29.99,10.0,South,6.9,-,N/A,,Scattered Clouds,170,2013-02-10 18:53:00
2:13 PM,32.2,22.1,66,29.98,10.0,SE,4.6,-,N/A,,Mostly Cloudy,140,2013-02-10 19:13:00
2:34 PM,32.0,22.3,67,29.98,10.0,SE,4.6,-,N/A,,Scattered Clouds,130,2013-02-10 19:34:00
2:53 PM,32.0,23.4,70,29.96,10.0,ESE,5.8,-,N/A,,Mostly Cloudy,110,2013-02-10 19:53:00
3:13 PM,31.5,24.3,75,29.96,5.0,ESE,5.8,-,N/A,,Haze,110,2013-02-10 20:13:00
3:34 PM,31.8,25.9,79,29.95,10.0,ESE,6.9,-,N/A,,Overcast,110,2013-02-10 20:34:00
3:53 PM,31.8,27.1,83,29.94,10.0,SE,9.2,16.1,N/A,,Overcast,130,2013-02-10 20:53:00
4:13 PM,31.5,27.0,83,29.94,10.0,SE,9.2,-,N/A,,Overcast,130,2013-02-10 21:13:00
4:34 PM,31.8,26.6,81,29.92,10.0,SE,6.9,-,N/A,,Overcast,130,2013-02-10 21:34:00
4:53 PM,31.6,25.5,78,29.90,10.0,SE,11.5,-,N/A,,Overcast,130,2013-02-10 21:53:00
5:13 PM,31.1,25.5,80,29.90,10.0,SE,12.7,19.6,N/A,,Overcast,140,2013-02-10 22:13:00
5:34 PM,31.1,25.0,78,29.88,10.0,SE,9.2,16.1,N/A,,Overcast,130,2013-02-10 22:34:00
5:53 PM,31.1,25.5,80,29.86,7.0,ESE,8.1,-,N/A,,Overcast,120,2013-02-10 22:53:00
6:13 PM,31.3,26.6,83,29.85,7.0,ESE,9.2,-,N/A,,Overcast,120,2013-02-10 23:13:00
6:34 PM,31.6,27.5,85,29.84,5.0,ESE,8.1,-,0.01,,Overcast,120,2013-02-10 23:34:00
6:53 PM,31.6,27.9,86,29.84,7.0,SE,6.9,-,0.01,,Overcast,130,2013-02-10 23:53:00
7:13 PM,31.8,28.0,86,29.83,7.0,SE,9.2,-,0.01,,Overcast,140,2013-02-11 00:13:00
7:34 PM,31.8,28.0,86,29.81,10.0,SE,8.1,-,0.01,,Overcast,140,2013-02-11 00:34:00
7:53 PM,32.0,28.4,87,29.80,7.0,SSE,5.8,-,0.01,,Overcast,150,2013-02-11 00:53:00
8:14 PM,32.0,28.8,88,29.78,3.0,SE,5.8,-,0.03,,Overcast,140,2013-02-11 01:14:00
8:34 PM,32.0,29.1,89,29.78,7.0,SSE,10.4,-,0.04,,Overcast,150,2013-02-11 01:34:00
8:53 PM,32.4,29.1,88,29.75,7.0,SSE,9.2,16.1,0.04,,Overcast,150,2013-02-11 01:53:00
9:14 PM,32.5,29.8,90,29.75,7.0,SSE,11.5,-,N/A,,Overcast,160,2013-02-11 02:14:00
9:34 PM,32.9,29.7,88,29.72,7.0,SSE,10.4,18.4,0.01,,Overcast,150,2013-02-11 02:34:00
9:53 PM,32.9,29.7,88,29.70,7.0,SSE,11.5,19.6,0.01,,Overcast,150,2013-02-11 02:53:00
10:14 PM,32.9,30.0,89,29.70,5.0,SSE,11.5,18.4,0.02,,Overcast,150,2013-02-11 03:14:00
10:34 PM,32.7,30.4,91,29.68,3.0,SSE,13.8,18.4,0.07,Snow,Light Snow,150,2013-02-11 03:34:00
10:53 PM,32.5,30.6,92,29.68,3.0,SSE,11.5,17.3,0.09,,Overcast,150,2013-02-11 03:53:00
11:14 PM,32.4,31.1,95,29.65,3.0,SE,11.5,16.1,N/A,,Overcast,140,2013-02-11 04:14:00
11:34 PM,32.4,31.6,97,29.64,4.0,SSE,10.4,-,N/A,,Overcast,150,2013-02-11 04:34:00
11:53 PM,32.4,31.6,97,29.63,4.0,SSE,6.9,-,N/A,,Overcast,150,2013-02-11 04:53:00